COSMOS 886 DEB, 9958

Orbit data source: Space-Track

COSMOS 886 DEB, 9958 is space debris in LEO originally from a launch on Mon, 27 Dec 1976 UTC launched from the Tyuratam Missile And Space Complex (TTMTR). Debris objects in space refer to the collection of defunct objects orbiting the Earth. Examples of debris include non-operational satellites, rocket bodies, and fragments generated from explosions, collisions, or faulty payload assembly.

Loading next visibility...
Identifier
9958, 1976-126AY
Orbit
LEO
Country
Flag of CISCIS
Related business
Manufacturer
Unknown
Mission
Spacecraft
Bus & Motor
Unknown
Mass
Unknown
Launch date (UTC)
1976-12-27 (49 years ago)
Launch vehicle
Unknown
Launch site
Tyuratam Missile And Space Complex (TTMTR)
Object type
Payload
Rocket body
Debris
Shape & HBR
Unknown shape, 0.1 m
Radar Cross Section
Small (<0.1 m²)

Expand to show TLE details & history
Last TLE update: 2 days ago

TLE from 2 days ago
0 COSMOS 886 DEB
1 09958U 76126AY  26129.01099755  .00000660  00000-0  82231-3 0  9990
2 09958  65.8746 246.5421 0897184 245.1619 105.3555 12.61976651258483
Epoch: 2026-05-09T00:15Z
TLE epoch observation values (Epoch: 2026-05-09T00:15:50.188Z)
Latitude
-0.00006°
Longitude
15.7484°
Altitude
1,657.885 km
Speed
6.935 km/s
True Right ascension
16h 26m 10s
True Declination
0° 00' 00"
Sunlit
Object was in full shadow at epoch
Visualization orbit readout
Latitude
Unknown
Longitude
Unknown
Altitude
Unknown
Speed
Unknown
Apparent Right ascension
Unknown
Apparent Declination
Unknown
Sunlit
N/A
Visualization observer readout
Local Sidereal Time
20:32:36
Azimuth
Unknown
Elevation
Unknown
Doppler factor
Unknown
Orbital elements
Apogee altitude
2,112.417 km
Perigee altitude
714.333 km
Semi-major axis
7,791.512 km
Eccentricity
0.08972
Inclination
65.8746°
RAAN
246.5421°
Arg. of periapsis
245.1619°
True anomaly
114.93852°
Mean anomaly
105.3555°
Eccentric anomaly
110.18042°
Mean motion
3.15581 °/min
Orbital period
114.08 mins
BSTAR
0.00082231
Loading maneuver chart data...
Computing Atmospheric mass density...
Loading historical data...
Loading historical data...
Loading historical data...
Loading historical data...
Loading historical data...
Loading historical data...
Loading historical data...

Documentation

Showing up to 5 results
|